Location: Barcelona
(41.3830°N, 2.1830°E)
Time: 22:47:23
(UTC+01:00)

ISS - Pass Details

Date: 15 January 2018
Orbit: 402 x 407 km, 51.6° (Epoch: 23 January)

Event Time Altitude Azimuth Distance (km) Brightness Sun altitude
Exits shadow 06:59:14 27° 267° (W) 819 -2.8 -14.0°
Maximum altitude 07:00:23 37° 223° (SW) 653 -3.0 -13.8°
Drops below altitude 10° 07:03:26 10° 154° (SSE) 1,458 -0.4 -13.3°
Sets 07:05:35 0° 146° (SE) 2,315 0.9 -12.9°
